Private Wetterstation Wechselburg
Wetterdaten: Mittwoch, 31.03.2021
Datum Zeit Temp. +2m Bodentemp. Temp.+5cm Temp. Wind Windchill X Diff Temp. Feuchte +2m Feuchte +5cm Luftdruck Regen Wind Richtung Richtung Sonnenschein Taupunkt Windchill Windben
31.03.2021 00:00 5,2 C 11,0 C 5,0 C 4,6 C 3,3 C 0,0 C 75 % 80 % 1031,9 hPa 0,0 l/m 0,0 km/h (0 Bft) S-SW 202 0 min 1,1 C 3,3 C 0,0 km/h (0 Bft)
31.03.2021 00:05 5,2 C 11,0 C 4,9 C 4,6 C 3,4 C 0,0 C 75 % 80 % 1031,9 hPa 0,0 l/m 0,0 km/h (0 Bft) S-SW 202 0 min 1,1 C 3,4 C 0,0 km/h (0 Bft)
31.03.2021 00:10 5,1 C 11,0 C 4,9 C 4,5 C 3,3 C 0,0 C 75 % 81 % 1031,9 hPa 0,0 l/m 0,0 km/h (0 Bft) S-SW 202 0 min 1,0 C 3,3 C 0,0 km/h (0 Bft)
31.03.2021 00:15 5,1 C 10,9 C 4,9 C 4,5 C 3,3 C 0,0 C 77 % 81 % 1031,9 hPa 0,0 l/m 0,0 km/h (0 Bft) S-SW 202 0 min 1,4 C 3,3 C 0,0 km/h (0 Bft)
31.03.2021 00:20 5,1 C 10,9 C 4,8 C 4,5 C 3,3 C 0,0 C 77 % 81 % 1031,7 hPa 0,0 l/m 0,0 km/h (0 Bft) S-SW 202 0 min 1,4 C 3,3 C 0,0 km/h (0 Bft)
31.03.2021 00:25 4,9 C 10,9 C 4,7 C 4,4 C 3,5 C 0,0 C 77 % 81 % 1031,7 hPa 0,0 l/m 0,0 km/h (0 Bft) S-SW 202 0 min 1,2 C 3,5 C 0,0 km/h (0 Bft)
31.03.2021 00:30 4,8 C 10,9 C 4,6 C 4,4 C 3,6 C 0,0 C 77 % 82 % 1031,7 hPa 0,0 l/m 0,0 km/h (0 Bft) S-SW 202 0 min 1,1 C 3,6 C 0,0 km/h (0 Bft)
31.03.2021 00:35 4,8 C 10,9 C 4,5 C 4,4 C 3,5 C 0,0 C 77 % 82 % 1031,7 hPa 0,0 l/m 0,0 km/h (0 Bft) S-SW 202 0 min 1,1 C 3,5 C 0,0 km/h (0 Bft)
31.03.2021 00:40 4,7 C 10,9 C 4,5 C 4,2 C 3,2 C 0,0 C 77 % 82 % 1031,4 hPa 0,0 l/m 0,0 km/h (0 Bft) S-SW 202 0 min 1,0 C 3,2 C 0,0 km/h (0 Bft)
31.03.2021 00:45 4,7 C 10,9 C 4,4 C 4,2 C 3,1 C 0,0 C 78 % 82 % 1031,4 hPa 0,0 l/m 0,0 km/h (0 Bft) S-SW 202 0 min 1,2 C 3,1 C 0,0 km/h (0 Bft)
31.03.2021 00:50 4,4 C 10,9 C 4,3 C 3,9 C 2,9 C 0,0 C 78 % 83 % 1031,4 hPa 0,0 l/m 0,0 km/h (0 Bft) S-SW 202 0 min 0,9 C 2,9 C 0,0 km/h (0 Bft)
31.03.2021 00:55 4,4 C 10,9 C 4,3 C 3,9 C 2,8 C 0,0 C 78 % 83 % 1031,4 hPa 0,0 l/m 0,0 km/h (0 Bft) S-SW 202 0 min 0,9 C 2,8 C 0,0 km/h (0 Bft)
31.03.2021 01:00 4,2 C 10,9 C 4,3 C 3,7 C 2,7 C 0,0 C 78 % 83 % 1031,4 hPa 0,0 l/m 0,0 km/h (0 Bft) S-SW 202 0 min 0,7 C 2,7 C 0,0 km/h (0 Bft)
31.03.2021 01:05 4,3 C 10,9 C 4,3 C 3,8 C 2,8 C 0,0 C 79 % 83 % 1031,4 hPa 0,0 l/m 0,0 km/h (0 Bft) S-SW 202 0 min 1,0 C 2,8 C 0,0 km/h (0 Bft)
31.03.2021 01:10 4,3 C 10,9 C 4,1 C 3,8 C 2,9 C 0,0 C 79 % 83 % 1031,4 hPa 0,0 l/m 0,0 km/h (0 Bft) S-SW 202 0 min 1,0 C 2,9 C 0,0 km/h (0 Bft)
31.03.2021 01:15 4,2 C 10,8 C 4,0 C 3,7 C 2,8 C 0,0 C 79 % 83 % 1031,4 hPa 0,0 l/m 0,0 km/h (0 Bft) S-SW 202 0 min 0,9 C 2,8 C 0,0 km/h (0 Bft)
31.03.2021 01:20 4,0 C 10,8 C 4,0 C 3,5 C 2,6 C 0,0 C 79 % 84 % 1031,4 hPa 0,0 l/m 0,0 km/h (0 Bft) S-SW 202 0 min 0,7 C 2,6 C 0,0 km/h (0 Bft)
31.03.2021 01:25 4,0 C 10,8 C 4,0 C 3,5 C 2,5 C 0,0 C 80 % 84 % 1031,4 hPa 0,0 l/m 0,0 km/h (0 Bft) S-SW 202 0 min 0,9 C 2,5 C 0,0 km/h (0 Bft)
31.03.2021 01:30 4,0 C 10,8 C 3,9 C 3,4 C 2,3 C 0,0 C 80 % 84 % 1031,4 hPa 0,0 l/m 0,0 km/h (0 Bft) S-SW 202 0 min 0,9 C 2,3 C 0,0 km/h (0 Bft)
31.03.2021 01:35 3,9 C 10,8 C 3,9 C 3,4 C 2,3 C 0,0 C 80 % 84 % 1031,4 hPa 0,0 l/m 0,0 km/h (0 Bft) S-SW 202 0 min 0,8 C 2,3 C 0,0 km/h (0 Bft)
31.03.2021 01:40 3,9 C 10,9 C 3,8 C 3,3 C 2,1 C 0,0 C 80 % 84 % 1031,4 hPa 0,0 l/m 0,0 km/h (0 Bft) S-SW 202 0 min 0,8 C 2,1 C 0,0 km/h (0 Bft)
31.03.2021 01:45 3,7 C 10,9 C 3,8 C 3,1 C 2,0 C 0,0 C 80 % 84 % 1031,4 hPa 0,0 l/m 0,0 km/h (0 Bft) S-SW 202 0 min 0,6 C 2,0 C 0,0 km/h (0 Bft)
31.03.2021 01:50 3,7 C 10,8 C 3,6 C 3,2 C 2,1 C 0,0 C 80 % 84 % 1031,4 hPa 0,0 l/m 0,0 km/h (0 Bft) S-SW 202 0 min 0,6 C 2,1 C 0,0 km/h (0 Bft)
31.03.2021 01:55 3,5 C 10,9 C 3,6 C 3,0 C 2,0 C 0,0 C 80 % 85 % 1031,4 hPa 0,0 l/m 0,0 km/h (0 Bft) S-SW 202 0 min 0,4 C 2,0 C 0,0 km/h (0 Bft)
31.03.2021 02:00 3,4 C 10,9 C 3,6 C 2,9 C 2,0 C 0,0 C 80 % 85 % 1031,4 hPa 0,0 l/m 0,0 km/h (0 Bft) S-SW 202 0 min 0,3 C 2,0 C 0,0 km/h (0 Bft)
31.03.2021 02:05 3,5 C 10,8 C 3,5 C 3,0 C 2,0 C 0,0 C 80 % 85 % 1031,4 hPa 0,0 l/m 0,0 km/h (0 Bft) S-SW 202 0 min 0,4 C 2,0 C 0,0 km/h (0 Bft)
31.03.2021 02:10 3,4 C 10,8 C 3,3 C 2,9 C 2,0 C 0,0 C 81 % 85 % 1031,4 hPa 0,0 l/m 0,0 km/h (0 Bft) S-SW 202 0 min 0,5 C 2,0 C 0,0 km/h (0 Bft)
31.03.2021 02:15 3,3 C 10,8 C 3,3 C 2,9 C 2,0 C 0,0 C 81 % 85 % 1031,4 hPa 0,0 l/m 0,0 km/h (0 Bft) S-SW 202 0 min 0,4 C 2,0 C 0,0 km/h (0 Bft)
31.03.2021 02:20 3,2 C 10,8 C 3,3 C 2,7 C 1,8 C 0,0 C 81 % 85 % 1031,5 hPa 0,0 l/m 0,0 km/h (0 Bft) S-SW 202 0 min 0,3 C 1,8 C 0,0 km/h (0 Bft)
31.03.2021 02:25 3,2 C 10,8 C 3,3 C 2,7 C 1,7 C 0,0 C 81 % 85 % 1031,5 hPa 0,0 l/m 0,0 km/h (0 Bft) S-SW 202 0 min 0,3 C 1,7 C 0,0 km/h (0 Bft)
31.03.2021 02:30 3,1 C 10,8 C 3,2 C 2,6 C 1,5 C 0,0 C 81 % 85 % 1031,5 hPa 0,0 l/m 0,0 km/h (0 Bft) S-SW 202 0 min 0,2 C 1,5 C 0,0 km/h (0 Bft)
31.03.2021 02:35 3,1 C 10,8 C 3,1 C 2,5 C 1,4 C 0,0 C 81 % 86 % 1031,5 hPa 0,0 l/m 0,0 km/h (0 Bft) S-SW 202 0 min 0,2 C 1,4 C 0,0 km/h (0 Bft)
31.03.2021 02:40 3,1 C 10,7 C 3,1 C 2,5 C 1,4 C 0,0 C 82 % 86 % 1031,2 hPa 0,0 l/m 0,0 km/h (0 Bft) S-SW 202 0 min 0,3 C 1,4 C 0,0 km/h (0 Bft)
31.03.2021 02:45 3,0 C 10,7 C 3,1 C 2,5 C 1,4 C 0,0 C 82 % 86 % 1031,2 hPa 0,0 l/m 0,0 km/h (0 Bft) S-SW 202 0 min 0,2 C 1,4 C 0,0 km/h (0 Bft)
31.03.2021 02:50 2,8 C 10,7 C 3,0 C 2,3 C 1,3 C 0,0 C 82 % 86 % 1031,2 hPa 0,0 l/m 0,0 km/h (0 Bft) S-SW 202 0 min 0,0 C 1,3 C 0,0 km/h (0 Bft)
31.03.2021 02:55 2,8 C 10,7 C 2,9 C 2,3 C 1,2 C 0,0 C 82 % 86 % 1031,2 hPa 0,0 l/m 0,0 km/h (0 Bft) S-SW 202 0 min 0,0 C 1,2 C 0,0 km/h (0 Bft)
31.03.2021 03:00 2,7 C 10,7 C 2,9 C 2,2 C 1,3 C 0,0 C 81 % 86 % 1030,9 hPa 0,0 l/m 0,0 km/h (0 Bft) S-SW 202 0 min -0,2 C 1,3 C 0,0 km/h (0 Bft)
31.03.2021 03:05 2,7 C 10,7 C 2,8 C 2,2 C 1,3 C 0,0 C 81 % 86 % 1030,9 hPa 0,0 l/m 0,0 km/h (0 Bft) S-SW 202 0 min -0,2 C 1,3 C 0,0 km/h (0 Bft)
31.03.2021 03:10 2,7 C 10,7 C 2,8 C 2,2 C 1,2 C 0,0 C 82 % 86 % 1030,9 hPa 0,0 l/m 0,0 km/h (0 Bft) S-SW 202 0 min -0,1 C 1,2 C 0,0 km/h (0 Bft)
31.03.2021 03:15 2,7 C 10,7 C 2,7 C 2,2 C 1,1 C 0,0 C 83 % 86 % 1030,9 hPa 0,0 l/m 0,0 km/h (0 Bft) S-SW 202 0 min 0,1 C 1,1 C 0,0 km/h (0 Bft)
31.03.2021 03:20 2,7 C 10,6 C 2,6 C 2,1 C 0,9 C 0,0 C 83 % 87 % 1030,9 hPa 0,0 l/m 0,0 km/h (0 Bft) S-SW 202 0 min 0,1 C 0,9 C 0,0 km/h (0 Bft)
31.03.2021 03:25 2,6 C 10,7 C 2,6 C 2,0 C 0,9 C 0,0 C 83 % 87 % 1030,9 hPa 0,0 l/m 0,0 km/h (0 Bft) S-SW 202 0 min 0,0 C 0,9 C 0,0 km/h (0 Bft)
31.03.2021 03:30 2,7 C 10,6 C 2,6 C 2,1 C 1,0 C 0,0 C 83 % 87 % 1030,9 hPa 0,0 l/m 0,0 km/h (0 Bft) S-SW 202 0 min 0,1 C 1,0 C 0,0 km/h (0 Bft)
31.03.2021 03:35 2,7 C 10,6 C 2,5 C 2,1 C 0,9 C 0,0 C 83 % 87 % 1030,9 hPa 0,0 l/m 0,0 km/h (0 Bft) S-SW 202 0 min 0,1 C 0,9 C 0,0 km/h (0 Bft)
31.03.2021 03:40 2,5 C 10,6 C 2,4 C 2,0 C 1,0 C 0,0 C 83 % 86 % 1030,9 hPa 0,0 l/m 0,0 km/h (0 Bft) S-SW 202 0 min -0,1 C 1,0 C 0,0 km/h (0 Bft)
31.03.2021 03:45 2,5 C 10,6 C 2,4 C 2,0 C 1,1 C 0,0 C 83 % 87 % 1030,9 hPa 0,0 l/m 0,0 km/h (0 Bft) S-SW 202 0 min -0,1 C 1,1 C 0,0 km/h (0 Bft)
31.03.2021 03:50 2,5 C 10,6 C 2,3 C 2,1 C 1,2 C 0,0 C 84 % 86 % 1030,9 hPa 0,0 l/m 0,0 km/h (0 Bft) S-SW 202 0 min 0,1 C 1,2 C 0,0 km/h (0 Bft)
31.03.2021 03:55 2,5 C 10,6 C 2,3 C 2,1 C 1,3 C 0,0 C 84 % 87 % 1030,9 hPa 0,0 l/m 0,0 km/h (0 Bft) S-SW 202 0 min 0,1 C 1,3 C 0,0 km/h (0 Bft)
31.03.2021 04:00 2,5 C 10,6 C 2,3 C 2,0 C 1,0 C 0,0 C 84 % 87 % 1030,9 hPa 0,0 l/m 0,0 km/h (0 Bft) S-SW 202 0 min 0,1 C 1,0 C 0,0 km/h (0 Bft)
31.03.2021 04:05 2,5 C 10,6 C 2,3 C 2,0 C 0,9 C 0,0 C 84 % 87 % 1030,9 hPa 0,0 l/m 0,0 km/h (0 Bft) S-SW 202 0 min 0,1 C 0,9 C 0,0 km/h (0 Bft)
31.03.2021 04:10 2,4 C 10,5 C 2,2 C 1,9 C 0,8 C 0,0 C 84 % 87 % 1030,9 hPa 0,0 l/m 0,0 km/h (0 Bft) S-SW 202 0 min -0,0 C 0,8 C 0,0 km/h (0 Bft)
31.03.2021 04:15 2,3 C 10,5 C 2,1 C 1,8 C 0,7 C 0,0 C 84 % 87 % 1030,9 hPa 0,0 l/m 0,0 km/h (0 Bft) S-SW 202 0 min -0,1 C 0,7 C 0,0 km/h (0 Bft)
31.03.2021 04:20 2,1 C 10,5 C 2,1 C 1,6 C 0,6 C 0,0 C 84 % 87 % 1030,5 hPa 0,0 l/m 0,0 km/h (0 Bft) S-SW 202 0 min -0,3 C 0,6 C 0,0 km/h (0 Bft)
31.03.2021 04:25 2,1 C 10,5 C 2,1 C 1,6 C 0,6 C 0,0 C 84 % 87 % 1030,5 hPa 0,0 l/m 0,0 km/h (0 Bft) S-SW 202 0 min -0,3 C 0,6 C 0,0 km/h (0 Bft)
31.03.2021 04:30 2,0 C 10,5 C 2,0 C 1,5 C 0,5 C 0,0 C 84 % 88 % 1030,5 hPa 0,0 l/m 0,0 km/h (0 Bft) S-SW 202 0 min -0,4 C 0,5 C 0,0 km/h (0 Bft)
31.03.2021 04:35 2,1 C 10,5 C 2,0 C 1,6 C 0,6 C 0,0 C 84 % 88 % 1030,5 hPa 0,0 l/m 0,0 km/h (0 Bft) S-SW 202 0 min -0,3 C 0,6 C 0,0 km/h (0 Bft)
31.03.2021 04:40 2,1 C 10,4 C 2,0 C 1,6 C 0,7 C 0,0 C 84 % 88 % 1030,5 hPa 0,0 l/m 0,0 km/h (0 Bft) S-SW 202 0 min -0,3 C 0,7 C 0,0 km/h (0 Bft)
31.03.2021 04:45 2,1 C 10,4 C 2,1 C 1,7 C 0,8 C 0,0 C 84 % 88 % 1030,5 hPa 0,0 l/m 0,0 km/h (0 Bft) S-SW 202 0 min -0,3 C 0,8 C 0,0 km/h (0 Bft)
31.03.2021 04:50 2,1 C 10,4 C 2,1 C 1,7 C 0,8 C 0,0 C 84 % 88 % 1030,5 hPa 0,0 l/m 0,0 km/h (0 Bft) S-SW 202 0 min -0,3 C 0,8 C 0,0 km/h (0 Bft)
31.03.2021 04:55 2,1 C 10,4 C 2,1 C 1,7 C 0,9 C 0,0 C 84 % 88 % 1030,5 hPa 0,0 l/m 0,0 km/h (0 Bft) S-SW 202 0 min -0,3 C 0,9 C 0,0 km/h (0 Bft)
31.03.2021 05:00 2,1 C 10,4 C 1,9 C 1,7 C 0,9 C 0,0 C 85 % 88 % 1030,5 hPa 0,0 l/m 0,0 km/h (0 Bft) S-SW 202 0 min -0,2 C 0,9 C 0,0 km/h (0 Bft)
31.03.2021 05:05 2,0 C 10,4 C 1,9 C 1,6 C 0,9 C 0,0 C 85 % 88 % 1030,5 hPa 0,0 l/m 0,0 km/h (0 Bft) S-SW 202 0 min -0,3 C 0,9 C 0,0 km/h (0 Bft)
31.03.2021 05:10 2,0 C 10,4 C 1,9 C 1,6 C 0,7 C 0,0 C 84 % 88 % 1030,5 hPa 0,0 l/m 0,0 km/h (0 Bft) S-SW 202 0 min -0,4 C 0,7 C 0,0 km/h (0 Bft)
31.03.2021 05:15 2,0 C 10,3 C 1,9 C 1,5 C 0,5 C 0,0 C 85 % 88 % 1030,5 hPa 0,0 l/m 0,0 km/h (0 Bft) S-SW 202 0 min -0,3 C 0,5 C 0,0 km/h (0 Bft)
31.03.2021 05:20 1,9 C 10,3 C 1,8 C 1,4 C 0,5 C 0,0 C 85 % 88 % 1029,1 hPa 0,0 l/m 0,0 km/h (0 Bft) S-SW 202 0 min -0,3 C 0,5 C 0,0 km/h (0 Bft)
31.03.2021 05:25 1,9 C 10,3 C 1,8 C 1,4 C 0,4 C 0,0 C 85 % 88 % 1029,1 hPa 0,0 l/m 0,0 km/h (0 Bft) S-SW 202 0 min -0,3 C 0,4 C 0,0 km/h (0 Bft)
31.03.2021 05:30 1,7 C 10,3 C 1,7 C 1,2 C 0,2 C 0,0 C 85 % 88 % 1029,1 hPa 0,0 l/m 0,0 km/h (0 Bft) S-SW 202 0 min -0,5 C 0,2 C 0,0 km/h (0 Bft)
31.03.2021 05:35 1,6 C 10,3 C 1,7 C 1,1 C 0,2 C 0,0 C 85 % 88 % 1029,1 hPa 0,0 l/m 0,0 km/h (0 Bft) S-SW 202 0 min -0,6 C 0,2 C 0,0 km/h (0 Bft)
31.03.2021 05:40 1,6 C 10,3 C 1,7 C 1,1 C 0,2 C 0,0 C 85 % 88 % 1030,1 hPa 0,0 l/m 0,0 km/h (0 Bft) S-SW 202 0 min -0,6 C 0,2 C 0,0 km/h (0 Bft)
31.03.2021 05:45 1,7 C 10,2 C 1,6 C 1,2 C 0,1 C 0,0 C 85 % 88 % 1030,1 hPa 0,0 l/m 0,0 km/h (0 Bft) S-SW 202 0 min -0,5 C 0,1 C 0,0 km/h (0 Bft)
31.03.2021 05:50 1,6 C 10,2 C 1,6 C 1,1 C 0,0 C 0,0 C 85 % 88 % 1030,1 hPa 0,0 l/m 0,0 km/h (0 Bft) S-SW 202 0 min -0,6 C 0,0 C 0,0 km/h (0 Bft)
31.03.2021 05:55 1,6 C 10,2 C 1,6 C 1,1 C 0,1 C 0,0 C 85 % 88 % 1030,1 hPa 0,0 l/m 0,0 km/h (0 Bft) S-SW 202 0 min -0,6 C 0,1 C 0,0 km/h (0 Bft)
31.03.2021 06:00 1,7 C 10,2 C 1,6 C 1,2 C 0,1 C 0,0 C 85 % 88 % 1030,1 hPa 0,0 l/m 0,0 km/h (0 Bft) S-SW 202 0 min -0,5 C 0,1 C 0,0 km/h (0 Bft)
31.03.2021 06:05 1,6 C 10,2 C 1,5 C 1,1 C 0,1 C 0,0 C 85 % 88 % 1030,1 hPa 0,0 l/m 0,0 km/h (0 Bft) S-SW 202 0 min -0,6 C 0,1 C 0,0 km/h (0 Bft)
31.03.2021 06:10 1,5 C 10,2 C 1,5 C 1,0 C 0,0 C 0,0 C 85 % 89 % 1030,1 hPa 0,0 l/m 0,0 km/h (0 Bft) S-SW 202 0 min -0,7 C 0,0 C 0,0 km/h (0 Bft)
31.03.2021 06:15 1,4 C 10,2 C 1,5 C 0,9 C 0,0 C 0,0 C 85 % 89 % 1030,1 hPa 0,0 l/m 0,0 km/h (0 Bft) S-SW 202 0 min -0,8 C 0,0 C 0,0 km/h (0 Bft)
31.03.2021 06:20 1,5 C 10,1 C 1,5 C 1,0 C 0,0 C 0,0 C 86 % 89 % 1030,1 hPa 0,0 l/m 0,0 km/h (0 Bft) S-SW 202 0 min -0,6 C 0,0 C 0,0 km/h (0 Bft)
31.03.2021 06:25 1,4 C 10,1 C 1,5 C 0,9 C 0,0 C 0,0 C 86 % 89 % 1030,1 hPa 0,0 l/m 0,0 km/h (0 Bft) S-SW 202 0 min -0,7 C 0,0 C 0,0 km/h (0 Bft)
31.03.2021 06:30 1,3 C 10,1 C 1,5 C 0,9 C 0,0 C 0,0 C 86 % 89 % 1030,1 hPa 0,0 l/m 0,0 km/h (0 Bft) S-SW 202 0 min -0,8 C 0,0 C 0,0 km/h (0 Bft)
31.03.2021 06:35 1,2 C 10,1 C 1,5 C 0,8 C 0,0 C 0,0 C 85 % 89 % 1030,1 hPa 0,0 l/m 0,0 km/h (0 Bft) S-SW 202 0 min -1,0 C 0,0 C 0,0 km/h (0 Bft)
31.03.2021 06:40 1,3 C 10,1 C 1,4 C 0,9 C 0,0 C 0,0 C 86 % 89 % 1030,1 hPa 0,0 l/m 0,0 km/h (0 Bft) S-SW 202 0 min -0,8 C 0,0 C 0,0 km/h (0 Bft)
31.03.2021 06:45 1,2 C 10,1 C 1,4 C 0,8 C 0,0 C 0,0 C 85 % 89 % 1030,1 hPa 0,0 l/m 0,0 km/h (0 Bft) S-SW 202 0 min -1,0 C 0,0 C 0,0 km/h (0 Bft)
31.03.2021 06:50 1,1 C 10,0 C 1,4 C 0,8 C 0,1 C 0,0 C 85 % 89 % 1030,1 hPa 0,0 l/m 0,0 km/h (0 Bft) S-SW 202 0 min -1,1 C 0,1 C 0,0 km/h (0 Bft)
31.03.2021 06:55 1,1 C 10,0 C 1,4 C 0,7 C 0,0 C 0,0 C 85 % 89 % 1030,1 hPa 0,0 l/m 0,0 km/h (0 Bft) S-SW 202 0 min -1,1 C 0,0 C 0,0 km/h (0 Bft)
31.03.2021 07:00 1,1 C 10,0 C 1,3 C 0,7 C 0,0 C 0,0 C 85 % 89 % 1030,1 hPa 0,0 l/m 0,0 km/h (0 Bft) S-SW 202 0 min -1,1 C 0,0 C 0,0 km/h (0 Bft)
31.03.2021 07:05 1,2 C 10,0 C 1,4 C 0,8 C 0,0 C 0,0 C 86 % 89 % 1030,1 hPa 0,0 l/m 0,0 km/h (0 Bft) S-SW 202 0 min -0,9 C 0,0 C 0,0 km/h (0 Bft)
31.03.2021 07:10 1,1 C 10,0 C 1,4 C 0,8 C 0,2 C 0,0 C 86 % 89 % 1030,1 hPa 0,0 l/m 0,0 km/h (0 Bft) S-SW 202 0 min -1,0 C 0,2 C 0,0 km/h (0 Bft)
31.03.2021 07:15 1,1 C 10,0 C 1,4 C 0,8 C 0,3 C 0,0 C 86 % 89 % 1030,1 hPa 0,0 l/m 0,0 km/h (0 Bft) S-SW 202 0 min -1,0 C 0,3 C 0,0 km/h (0 Bft)
31.03.2021 07:20 1,2 C 10,0 C 1,5 C 1,3 C 1,3 C 0,1 C 86 % 89 % 1029,1 hPa 0,0 l/m 0,0 km/h (0 Bft) S-SW 202 0 min -0,9 C 1,3 C 0,0 km/h (0 Bft)
31.03.2021 07:25 1,2 C 10,0 C 1,7 C 1,7 C 1,7 C 0,5 C 86 % 89 % 1029,1 hPa 0,0 l/m 0,0 km/h (0 Bft) S-SW 202 0 min -0,9 C 1,7 C 0,0 km/h (0 Bft)
31.03.2021 07:30 1,2 C 9,9 C 2,0 C 2,9 C 2,9 C 1,7 C 86 % 89 % 1029,1 hPa 0,0 l/m 0,0 km/h (0 Bft) S-SW 202 5 min -0,9 C 2,9 C 0,0 km/h (0 Bft)
31.03.2021 07:35 1,5 C 9,9 C 2,3 C 3,8 C 3,8 C 2,3 C 86 % 90 % 1029,1 hPa 0,0 l/m 0,0 km/h (0 Bft) S-SW 202 5 min -0,6 C 3,8 C 0,0 km/h (0 Bft)
31.03.2021 07:40 1,5 C 9,8 C 2,6 C 4,8 C 4,8 C 3,3 C 87 % 90 % 1028,9 hPa 0,0 l/m 0,0 km/h (0 Bft) S-SW 202 5 min -0,4 C 4,8 C 0,0 km/h (0 Bft)
31.03.2021 07:45 1,6 C 9,8 C 3,1 C 6,1 C 6,1 C 4,5 C 87 % 89 % 1028,9 hPa 0,0 l/m 0,0 km/h (0 Bft) S-SW 202 5 min -0,3 C 6,1 C 0,0 km/h (0 Bft)
31.03.2021 07:50 1,7 C 9,8 C 3,5 C 7,2 C 7,2 C 5,5 C 87 % 89 % 1028,9 hPa 0,0 l/m 0,0 km/h (0 Bft) S-SW 202 5 min -0,2 C 7,2 C 0,0 km/h (0 Bft)
31.03.2021 07:55 1,9 C 9,8 C 3,7 C 8,1 C 8,1 C 6,2 C 87 % 89 % 1028,9 hPa 0,0 l/m 0,0 km/h (0 Bft) S-SW 202 5 min -0,0 C 8,1 C 0,0 km/h (0 Bft)
31.03.2021 08:00 2,1 C 9,7 C 4,0 C 9,9 C 9,9 C 7,8 C 87 % 89 % 1028,6 hPa 0,0 l/m 0,0 km/h (0 Bft) S-SW 202 5 min 0,2 C 9,9 C 0,0 km/h (0 Bft)
31.03.2021 08:05 2,3 C 9,7 C 4,2 C 10,8 C 10,8 C 8,5 C 88 % 88 % 1028,6 hPa 0,0 l/m 0,0 km/h (0 Bft) S-SW 202 5 min 0,5 C 10,8 C 0,0 km/h (0 Bft)
31.03.2021 08:10 2,8 C 9,6 C 4,5 C 11,5 C 11,5 C 8,7 C 88 % 88 % 1028,6 hPa 0,0 l/m 0,0 km/h (0 Bft) S-SW 202 5 min 1,0 C 11,5 C 0,0 km/h (0 Bft)
31.03.2021 08:15 3,1 C 9,6 C 4,7 C 11,9 C 11,9 C 8,8 C 88 % 88 % 1028,6 hPa 0,0 l/m 0,0 km/h (0 Bft) S-SW 202 5 min 1,3 C 11,9 C 0,0 km/h (0 Bft)
31.03.2021 08:20 3,6 C 9,6 C 4,9 C 12,7 C 12,7 C 9,1 C 87 % 87 % 1028,8 hPa 0,0 l/m 0,0 km/h (0 Bft) S-SW 202 5 min 1,6 C 12,7 C 0,0 km/h (0 Bft)
31.03.2021 08:25 3,6 C 9,6 C 4,9 C 13,6 C 13,6 C 10,0 C 87 % 86 % 1028,8 hPa 0,0 l/m 0,0 km/h (0 Bft) S-SW 202 5 min 1,6 C 13,6 C 0,0 km/h (0 Bft)
31.03.2021 08:30 3,6 C 9,6 C 4,8 C 14,3 C 14,3 C 10,7 C 87 % 86 % 1028,8 hPa 0,0 l/m 0,0 km/h (0 Bft) S-SW 202 5 min 1,6 C 14,3 C 0,0 km/h (0 Bft)
31.03.2021 08:35 3,6 C 9,6 C 4,8 C 15,1 C 15,1 C 11,5 C 87 % 86 % 1028,8 hPa 0,0 l/m 0,0 km/h (0 Bft) S-SW 202 5 min 1,6 C 15,1 C 0,0 km/h (0 Bft)
31.03.2021 08:40 3,9 C 9,5 C 4,9 C 16,3 C 16,3 C 12,4 C 88 % 86 % 1028,6 hPa 0,0 l/m 0,0 km/h (0 Bft) S-SW 202 5 min 2,1 C 16,3 C 0,0 km/h (0 Bft)
31.03.2021 08:45 4,0 C 9,5 C 5,2 C 16,6 C 16,6 C 12,6 C 88 % 86 % 1028,6 hPa 0,0 l/m 0,0 km/h (0 Bft) S-SW 202 5 min 2,2 C 16,6 C 0,0 km/h (0 Bft)
31.03.2021 08:50 4,3 C 9,4 C 5,3 C 17,6 C 17,6 C 13,3 C 88 % 85 % 1028,6 hPa 0,0 l/m 0,0 km/h (0 Bft) S-SW 202 5 min 2,5 C 17,6 C 0,0 km/h (0 Bft)
31.03.2021 08:55 4,7 C 9,3 C 5,5 C 18,0 C 18,0 C 13,3 C 88 % 85 % 1028,6 hPa 0,0 l/m 0,0 km/h (0 Bft) S-SW 202 5 min 2,9 C 18,0 C 0,0 km/h (0 Bft)
31.03.2021 09:00 5,1 C 9,3 C 5,6 C 18,0 C 18,0 C 12,9 C 88 % 84 % 1028,6 hPa 0,0 l/m 0,0 km/h (0 Bft) S-SW 202 5 min 3,3 C 18,0 C 0,0 km/h (0 Bft)
31.03.2021 09:05 5,4 C 9,3 C 5,7 C 18,0 C 18,0 C 12,6 C 88 % 84 % 1028,6 hPa 0,0 l/m 0,0 km/h (0 Bft) S-SW 202 5 min 3,6 C 18,0 C 0,0 km/h (0 Bft)
31.03.2021 09:10 6,0 C 9,3 C 6,0 C 17,8 C 17,8 C 11,8 C 87 % 84 % 1028,6 hPa 0,0 l/m 0,0 km/h (0 Bft) S-SW 202 5 min 4,0 C 17,8 C 0,0 km/h (0 Bft)
31.03.2021 09:15 6,4 C 9,3 C 6,1 C 18,4 C 18,4 C 12,0 C 87 % 84 % 1028,6 hPa 0,0 l/m 0,0 km/h (0 Bft) S-SW 202 5 min 4,4 C 18,4 C 0,0 km/h (0 Bft)
31.03.2021 09:20 7,0 C 9,3 C 6,5 C 18,1 C 18,1 C 11,1 C 87 % 84 % 1028,7 hPa 0,0 l/m 0,0 km/h (0 Bft) S-SW 202 5 min 5,0 C 18,1 C 0,0 km/h (0 Bft)
31.03.2021 09:25 7,3 C 9,3 C 6,7 C 17,3 C 17,3 C 10,0 C 87 % 84 % 1028,7 hPa 0,0 l/m 0,0 km/h (0 Bft) S-SW 202 5 min 5,3 C 17,3 C 0,0 km/h (0 Bft)
31.03.2021 09:30 7,8 C 9,3 C 7,1 C 15,8 C 15,8 C 8,0 C 86 % 83 % 1028,7 hPa 0,0 l/m 0,0 km/h (0 Bft) S-SW 202 5 min 5,6 C 15,8 C 0,0 km/h (0 Bft)
31.03.2021 09:35 8,1 C 9,3 C 7,3 C 15,2 C 15,2 C 7,1 C 85 % 83 % 1028,7 hPa 0,0 l/m 0,0 km/h (0 Bft) S-SW 202 5 min 5,7 C 15,2 C 0,0 km/h (0 Bft)
31.03.2021 09:40 8,5 C 9,3 C 7,7 C 15,1 C 15,1 C 6,6 C 84 % 83 % 1028,4 hPa 0,0 l/m 0,2 km/h (0 Bft) S-SW 202 5 min 6,0 C 15,1 C 2,1 km/h (1 Bft)
31.03.2021 09:45 8,8 C 9,3 C 8,2 C 15,8 C 15,8 C 7,0 C 83 % 83 % 1028,4 hPa 0,0 l/m 0,2 km/h (0 Bft) S-SW 202 5 min 6,1 C 15,8 C 0,0 km/h (0 Bft)
31.03.2021 09:50 9,3 C 9,3 C 8,8 C 14,9 C 14,9 C 5,6 C 82 % 82 % 1028,4 hPa 0,0 l/m 0,0 km/h (0 Bft) S-SW 202 5 min 6,4 C 14,9 C 0,0 km/h (0 Bft)
31.03.2021 09:55 9,4 C 9,2 C 9,1 C 15,1 C 15,1 C 5,7 C 81 % 81 % 1028,4 hPa 0,0 l/m 0,2 km/h (0 Bft) S-SW 202 5 min 6,3 C 15,1 C 0,0 km/h (0 Bft)
31.03.2021 10:00 9,9 C 9,2 C 9,7 C 15,7 C 15,7 C 5,8 C 79 % 80 % 1028,2 hPa 0,0 l/m 0,2 km/h (0 Bft) S-SW 202 5 min 6,4 C 15,7 C 0,0 km/h (0 Bft)
31.03.2021 10:05 10,2 C 9,2 C 10,0 C 16,3 C 16,3 C 6,1 C 79 % 79 % 1028,2 hPa 0,0 l/m 0,2 km/h (0 Bft) S-SW 202 5 min 6,7 C 16,3 C 1,9 km/h (1 Bft)
31.03.2021 10:10 10,7 C 9,2 C 11,1 C 17,1 C 17,1 C 6,4 C 77 % 79 % 1028,2 hPa 0,0 l/m 0,3 km/h (0 Bft) S-SW 202 5 min 6,8 C 17,1 C 1,8 km/h (1 Bft)
31.03.2021 10:15 10,9 C 9,2 C 11,9 C 17,8 C 17,8 C 6,9 C 76 % 78 % 1028,2 hPa 0,0 l/m 0,5 km/h (0 Bft) S-SW 202 5 min 6,8 C 17,8 C 0,0 km/h (0 Bft)
31.03.2021 10:20 11,5 C 9,2 C 12,1 C 17,1 C 17,1 C 5,6 C 75 % 76 % 1027,8 hPa 0,0 l/m 1,1 km/h (1 Bft) S-SW 202 5 min 7,2 C 17,1 C 2,7 km/h (1 Bft)
31.03.2021 10:25 11,6 C 9,2 C 12,5 C 17,3 C 17,3 C 5,7 C 74 % 74 % 1027,8 hPa 0,0 l/m 1,1 km/h (1 Bft) S-SW 202 5 min 7,1 C 17,3 C 0,0 km/h (0 Bft)
31.03.2021 10:30 12,1 C 9,1 C 13,5 C 18,1 C 18,1 C 6,0 C 72 % 73 % 1027,8 hPa 0,0 l/m 0,6 km/h (0 Bft) S-SW 202 5 min 7,2 C 18,1 C 1,9 km/h (1 Bft)
31.03.2021 10:35 12,4 C 9,1 C 14,5 C 18,9 C 18,9 C 6,5 C 71 % 72 % 1027,8 hPa 0,0 l/m 0,6 km/h (0 Bft) S-SW 202 5 min 7,3 C 18,9 C 0,0 km/h (0 Bft)
31.03.2021 10:40 13,0 C 9,1 C 15,8 C 19,3 C 19,3 C 6,3 C 70 % 68 % 1028,2 hPa 0,0 l/m 0,6 km/h (0 Bft) S-SW 202 5 min 7,7 C 19,3 C 2,1 km/h (1 Bft)
31.03.2021 10:45 13,3 C 9,1 C 16,3 C 19,7 C 19,7 C 6,4 C 69 % 66 % 1028,2 hPa 0,0 l/m 0,8 km/h (0 Bft) S-SW 202 5 min 7,7 C 19,7 C 2,7 km/h (1 Bft)
31.03.2021 10:50 13,9 C 9,2 C 17,4 C 20,2 C 20,2 C 6,3 C 68 % 63 % 1028,2 hPa 0,0 l/m 0,8 km/h (0 Bft) S-SW 202 5 min 8,1 C 20,2 C 3,5 km/h (1 Bft)
31.03.2021 10:55 14,1 C 9,2 C 17,9 C 20,2 C 20,2 C 6,1 C 67 % 61 % 1028,2 hPa 0,0 l/m 0,8 km/h (0 Bft) S 180 5 min 8,1 C 20,2 C 3,1 km/h (1 Bft)
31.03.2021 11:00 14,7 C 9,2 C 18,5 C 19,5 C 19,5 C 4,8 C 66 % 59 % 1027,8 hPa 0,0 l/m 0,8 km/h (0 Bft) S-SW 202 5 min 8,4 C 19,5 C 0,0 km/h (0 Bft)
31.03.2021 11:05 15,1 C 9,2 C 18,5 C 19,1 C 19,1 C 4,0 C 65 % 57 % 1027,8 hPa 0,0 l/m 1,3 km/h (1 Bft) S-SW 202 5 min 8,6 C 19,1 C 2,7 km/h (1 Bft)
31.03.2021 11:10 15,5 C 9,2 C 18,5 C 19,3 C 19,3 C 3,8 C 62 % 57 % 1027,8 hPa 0,0 l/m 1,6 km/h (1 Bft) SW 225 5 min 8,3 C 19,3 C 4,2 km/h (1 Bft)
31.03.2021 11:15 15,9 C 9,2 C 18,9 C 19,3 C 19,3 C 3,4 C 61 % 55 % 1027,8 hPa 0,0 l/m 1,9 km/h (1 Bft) SW 225 5 min 8,4 C 19,3 C 1,9 km/h (1 Bft)
31.03.2021 11:20 16,3 C 9,2 C 20,1 C 19,5 C 19,5 C 3,2 C 60 % 54 % 1027,5 hPa 0,0 l/m 1,6 km/h (1 Bft) SW 225 0 min 8,5 C 19,5 C 2,6 km/h (1 Bft)
31.03.2021 11:25 16,7 C 9,2 C 21,2 C 20,7 C 20,7 C 4,0 C 58 % 51 % 1027,5 hPa 0,0 l/m 1,4 km/h (1 Bft) S 180 5 min 8,4 C 20,7 C 1,8 km/h (1 Bft)
31.03.2021 11:30 17,0 C 9,2 C 22,7 C 20,6 C 20,6 C 3,6 C 57 % 47 % 1027,5 hPa 0,0 l/m 1,0 km/h (0 Bft) SW 225 5 min 8,4 C 20,6 C 3,4 km/h (1 Bft)
31.03.2021 11:35 17,4 C 9,2 C 23,1 C 20,6 C 20,6 C 3,2 C 56 % 45 % 1027,5 hPa 0,0 l/m 1,0 km/h (0 Bft) S-SW 202 0 min 8,5 C 20,6 C 0,0 km/h (0 Bft)
31.03.2021 11:40 18,0 C 9,2 C 23,8 C 20,6 C 20,6 C 2,6 C 56 % 43 % 1027,6 hPa 0,0 l/m 1,4 km/h (1 Bft) W-SW 247 0 min 9,1 C 20,6 C 5,5 km/h (1 Bft)
31.03.2021 11:45 18,5 C 9,2 C 24,6 C 21,1 C 21,1 C 2,6 C 54 % 41 % 1027,6 hPa 0,0 l/m 1,8 km/h (1 Bft) W-NW 292 0 min 9,0 C 21,1 C 2,7 km/h (1 Bft)
31.03.2021 11:50 18,9 C 9,3 C 25,7 C 22,1 C 22,1 C 3,2 C 50 % 38 % 1027,6 hPa 0,0 l/m 3,7 km/h (1 Bft) S-SW 202 0 min 8,2 C 22,1 C 7,7 km/h (2 Bft)
31.03.2021 11:55 19,2 C 9,3 C 26,1 C 22,6 C 22,6 C 3,4 C 49 % 36 % 1027,6 hPa 0,0 l/m 3,7 km/h (1 Bft) S 180 5 min 8,2 C 22,6 C 7,4 km/h (2 Bft)
31.03.2021 12:00 19,5 C 9,3 C 26,2 C 22,8 C 22,8 C 3,3 C 47 % 34 % 1027,6 hPa 0,0 l/m 5,0 km/h (1 Bft) S-SW 202 5 min 7,9 C 22,8 C 9,2 km/h (2 Bft)
31.03.2021 12:05 19,5 C 9,3 C 26,4 C 22,4 C 22,4 C 2,9 C 46 % 34 % 1027,6 hPa 0,0 l/m 6,0 km/h (2 Bft) S 180 0 min 7,6 C 22,4 C 6,8 km/h (2 Bft)
31.03.2021 12:10 19,6 C 9,3 C 27,1 C 22,0 C 22,0 C 2,4 C 46 % 34 % 1027,6 hPa 0,0 l/m 5,3 km/h (1 Bft) S-SW 202 0 min 7,7 C 22,0 C 5,3 km/h (1 Bft)
31.03.2021 12:15 19,9 C 9,4 C 27,0 C 22,4 C 22,4 C 2,5 C 46 % 32 % 1027,6 hPa 0,0 l/m 4,3 km/h (1 Bft) O 90 0 min 7,9 C 22,4 C 6,6 km/h (2 Bft)
31.03.2021 12:20 20,0 C 9,4 C 27,0 C 23,3 C 23,3 C 3,3 C 46 % 32 % 1027,0 hPa 0,0 l/m 3,7 km/h (1 Bft) S 180 5 min 8,0 C 23,3 C 4,3 km/h (1 Bft)
31.03.2021 12:25 20,2 C 9,4 C 26,8 C 23,7 C 23,7 C 3,5 C 44 % 31 % 1027,0 hPa 0,0 l/m 4,2 km/h (1 Bft) SW 225 5 min 7,6 C 23,7 C 6,4 km/h (2 Bft)
31.03.2021 12:30 20,3 C 9,5 C 27,3 C 24,4 C 24,4 C 4,1 C 44 % 31 % 1027,0 hPa 0,0 l/m 4,3 km/h (1 Bft) SO 135 5 min 7,6 C 24,4 C 9,5 km/h (2 Bft)
31.03.2021 12:35 20,4 C 9,5 C 27,4 C 24,6 C 24,6 C 4,2 C 44 % 31 % 1027,0 hPa 0,0 l/m 4,7 km/h (1 Bft) SW 225 5 min 7,7 C 24,6 C 5,1 km/h (1 Bft)
31.03.2021 12:40 20,7 C 9,5 C 27,5 C 25,3 C 25,3 C 4,6 C 43 % 30 % 1026,9 hPa 0,0 l/m 5,0 km/h (1 Bft) W-SW 247 5 min 7,7 C 25,3 C 9,7 km/h (2 Bft)
31.03.2021 12:45 20,9 C 9,5 C 27,3 C 25,6 C 25,6 C 4,7 C 42 % 30 % 1026,9 hPa 0,0 l/m 5,1 km/h (1 Bft) S-SW 202 5 min 7,5 C 25,6 C 6,0 km/h (2 Bft)
31.03.2021 12:50 21,1 C 9,6 C 27,6 C 26,3 C 26,3 C 5,2 C 43 % 31 % 1026,9 hPa 0,0 l/m 5,1 km/h (1 Bft) SW 225 5 min 8,0 C 26,3 C 4,3 km/h (1 Bft)
31.03.2021 12:55 21,2 C 9,6 C 27,6 C 26,5 C 26,5 C 5,3 C 42 % 31 % 1026,9 hPa 0,0 l/m 4,8 km/h (1 Bft) S-SW 202 5 min 7,8 C 26,5 C 3,9 km/h (1 Bft)
31.03.2021 13:00 21,4 C 9,6 C 27,8 C 26,9 C 26,9 C 5,5 C 42 % 30 % 1026,6 hPa 0,0 l/m 4,3 km/h (1 Bft) W-SW 247 5 min 8,0 C 26,9 C 10,8 km/h (2 Bft)
31.03.2021 13:05 21,7 C 9,6 C 27,5 C 27,1 C 27,1 C 5,4 C 42 % 30 % 1026,6 hPa 0,0 l/m 4,0 km/h (1 Bft) SW 225 5 min 8,2 C 27,1 C 5,1 km/h (1 Bft)
31.03.2021 13:10 21,7 C 9,6 C 27,5 C 27,1 C 27,1 C 5,4 C 42 % 30 % 1026,6 hPa 0,0 l/m 4,0 km/h (1 Bft) SW 225 5 min 8,2 C 27,1 C 5,1 km/h (1 Bft)
31.03.2021 13:15 21,7 C 9,7 C 27,5 C 27,3 C 27,3 C 5,6 C 42 % 30 % 1026,6 hPa 0,0 l/m 4,5 km/h (1 Bft) W-SW 247 5 min 8,2 C 27,3 C 2,9 km/h (1 Bft)
31.03.2021 13:20 22,2 C 9,6 C 26,1 C 27,4 C 27,4 C 5,2 C 39 % 29 % 1026,6 hPa 0,0 l/m 3,5 km/h (1 Bft) N-NO 22 5 min 7,6 C 27,4 C 0,0 km/h (0 Bft)
31.03.2021 13:25 22,7 C 9,8 C 25,7 C 27,8 C 27,8 C 5,1 C 39 % 31 % 1026,6 hPa 0,0 l/m 2,3 km/h (1 Bft) S 180 5 min 8,0 C 27,8 C 4,7 km/h (1 Bft)
31.03.2021 13:30 23,0 C 9,7 C 25,6 C 28,1 C 28,1 C 5,1 C 37 % 31 % 1026,6 hPa 0,0 l/m 2,9 km/h (1 Bft) S 180 5 min 7,5 C 28,1 C 6,9 km/h (2 Bft)
31.03.2021 13:35 22,9 C 9,7 C 25,7 C 27,8 C 27,8 C 4,9 C 37 % 31 % 1026,6 hPa 0,0 l/m 4,2 km/h (1 Bft) SW 225 5 min 7,4 C 27,8 C 5,5 km/h (1 Bft)
31.03.2021 13:40 22,4 C 9,8 C 26,1 C 27,5 C 27,5 C 5,1 C 36 % 30 % 1026,6 hPa 0,0 l/m 5,5 km/h (1 Bft) S-SW 202 5 min 6,6 C 27,5 C 4,0 km/h (1 Bft)
31.03.2021 13:45 22,4 C 9,9 C 26,9 C 27,5 C 27,5 C 5,1 C 37 % 30 % 1026,6 hPa 0,0 l/m 4,8 km/h (1 Bft) S-SW 202 5 min 7,0 C 27,5 C 8,0 km/h (2 Bft)
31.03.2021 13:50 22,4 C 9,9 C 27,1 C 27,3 C 27,3 C 4,9 C 35 % 28 % 1026,6 hPa 0,0 l/m 5,5 km/h (1 Bft) SW 225 5 min 6,2 C 27,3 C 6,6 km/h (2 Bft)
31.03.2021 13:55 22,5 C 9,9 C 27,0 C 27,2 C 27,2 C 4,7 C 37 % 29 % 1026,6 hPa 0,0 l/m 6,0 km/h (2 Bft) W-NW 292 5 min 7,1 C 27,2 C 6,6 km/h (2 Bft)
31.03.2021 14:00 22,7 C 9,9 C 27,2 C 28,0 C 28,0 C 5,3 C 37 % 28 % 1025,9 hPa 0,0 l/m 3,4 km/h (1 Bft) N-NW 337 5 min 7,3 C 28,0 C 3,7 km/h (1 Bft)
31.03.2021 14:05 22,8 C 9,9 C 26,9 C 28,2 C 28,2 C 5,4 C 36 % 28 % 1025,9 hPa 0,0 l/m 3,9 km/h (1 Bft) S 180 5 min 6,9 C 28,2 C 8,9 km/h (2 Bft)
31.03.2021 14:10 22,7 C 9,9 C 26,3 C 27,6 C 27,6 C 4,9 C 35 % 28 % 1025,9 hPa 0,0 l/m 5,3 km/h (1 Bft) N 360 5 min 6,4 C 27,6 C 0,0 km/h (0 Bft)
31.03.2021 14:15 22,7 C 9,9 C 25,5 C 27,8 C 27,8 C 5,1 C 34 % 29 % 1025,9 hPa 0,0 l/m 5,3 km/h (1 Bft) SW 225 5 min 6,0 C 27,8 C 6,3 km/h (2 Bft)
31.03.2021 14:20 22,8 C 10,0 C 24,5 C 27,7 C 27,7 C 4,9 C 34 % 30 % 1025,9 hPa 0,0 l/m 4,8 km/h (1 Bft) SW 225 5 min 6,1 C 27,7 C 9,3 km/h (2 Bft)
31.03.2021 14:25 22,9 C 10,0 C 24,1 C 27,8 C 27,8 C 4,9 C 34 % 31 % 1025,9 hPa 0,0 l/m 5,0 km/h (1 Bft) W-SW 247 5 min 6,2 C 27,8 C 3,1 km/h (1 Bft)
31.03.2021 14:30 23,1 C 10,1 C 23,7 C 28,0 C 28,0 C 4,9 C 34 % 31 % 1025,9 hPa 0,0 l/m 4,0 km/h (1 Bft) S-SW 202 5 min 6,4 C 28,0 C 3,1 km/h (1 Bft)
31.03.2021 14:35 23,2 C 10,1 C 23,6 C 28,0 C 28,0 C 4,8 C 34 % 32 % 1025,9 hPa 0,0 l/m 4,3 km/h (1 Bft) SW 225 5 min 6,5 C 28,0 C 8,9 km/h (2 Bft)
31.03.2021 14:40 23,1 C 10,1 C 23,5 C 27,4 C 27,4 C 4,3 C 34 % 33 % 1025,6 hPa 0,0 l/m 6,4 km/h (2 Bft) SW 225 5 min 6,4 C 27,4 C 9,2 km/h (2 Bft)
31.03.2021 14:45 23,1 C 10,2 C 23,4 C 27,4 C 27,4 C 4,3 C 34 % 32 % 1025,6 hPa 0,0 l/m 6,8 km/h (2 Bft) S 180 5 min 6,4 C 27,4 C 7,9 km/h (2 Bft)
31.03.2021 14:50 23,2 C 10,2 C 23,1 C 27,5 C 27,5 C 4,3 C 33 % 33 % 1025,6 hPa 0,0 l/m 5,8 km/h (2 Bft) SW 225 5 min 6,0 C 27,5 C 5,3 km/h (1 Bft)
31.03.2021 14:55 23,3 C 10,2 C 22,9 C 27,8 C 27,8 C 4,5 C 34 % 33 % 1025,6 hPa 0,0 l/m 4,3 km/h (1 Bft) SO 135 5 min 6,6 C 27,8 C 2,1 km/h (1 Bft)
31.03.2021 15:00 23,9 C 10,2 C 22,8 C 28,5 C 28,5 C 4,6 C 34 % 35 % 1025,4 hPa 0,0 l/m 2,7 km/h (1 Bft) S 180 5 min 7,1 C 28,5 C 7,9 km/h (2 Bft)
31.03.2021 15:05 23,9 C 10,2 C 22,7 C 28,6 C 28,6 C 4,7 C 33 % 34 % 1025,4 hPa 0,0 l/m 3,1 km/h (1 Bft) SO 135 5 min 6,6 C 28,6 C 6,4 km/h (2 Bft)
31.03.2021 15:10 23,8 C 10,3 C 22,6 C 28,9 C 28,9 C 5,1 C 34 % 34 % 1025,4 hPa 0,0 l/m 2,7 km/h (1 Bft) S 180 5 min 7,0 C 28,9 C 0,0 km/h (0 Bft)
31.03.2021 15:15 23,9 C 10,4 C 22,5 C 29,1 C 29,1 C 5,2 C 34 % 35 % 1025,4 hPa 0,0 l/m 2,7 km/h (1 Bft) S-SW 202 5 min 7,1 C 29,1 C 3,9 km/h (1 Bft)
31.03.2021 15:20 24,2 C 10,4 C 22,4 C 29,4 C 29,4 C 5,2 C 34 % 37 % 1025,9 hPa 0,0 l/m 2,1 km/h (1 Bft) O-SO 112 5 min 7,3 C 29,4 C 2,6 km/h (1 Bft)
31.03.2021 15:25 24,5 C 10,3 C 22,5 C 29,7 C 29,7 C 5,2 C 33 % 35 % 1025,9 hPa 0,0 l/m 2,1 km/h (1 Bft) S-SW 202 5 min 7,2 C 29,7 C 7,2 km/h (2 Bft)
31.03.2021 15:30 24,3 C 10,5 C 22,5 C 29,1 C 29,1 C 4,8 C 32 % 35 % 1025,9 hPa 0,0 l/m 4,0 km/h (1 Bft) S 180 5 min 6,5 C 29,1 C 6,0 km/h (2 Bft)
31.03.2021 15:35 24,0 C 10,4 C 22,6 C 28,6 C 28,6 C 4,6 C 32 % 35 % 1025,9 hPa 0,0 l/m 5,8 km/h (2 Bft) SW 225 5 min 6,3 C 28,6 C 8,0 km/h (2 Bft)
31.03.2021 15:40 24,1 C 10,5 C 22,6 C 28,4 C 28,4 C 4,3 C 33 % 35 % 1024,9 hPa 0,0 l/m 5,1 km/h (1 Bft) S-SW 202 5 min 6,8 C 28,4 C 6,1 km/h (2 Bft)
31.03.2021 15:45 24,1 C 10,5 C 22,5 C 28,3 C 28,3 C 4,2 C 32 % 35 % 1024,9 hPa 0,0 l/m 4,8 km/h (1 Bft) SW 225 5 min 6,4 C 28,3 C 6,0 km/h (2 Bft)
31.03.2021 15:50 24,3 C 10,5 C 22,5 C 28,5 C 28,5 C 4,2 C 33 % 34 % 1024,9 hPa 0,0 l/m 4,2 km/h (1 Bft) NO 45 5 min 7,0 C 28,5 C 10,9 km/h (2 Bft)
31.03.2021 15:55 24,1 C 10,6 C 22,4 C 28,2 C 28,2 C 4,1 C 32 % 35 % 1024,9 hPa 0,0 l/m 3,9 km/h (1 Bft) SW 225 5 min 6,4 C 28,2 C 3,4 km/h (1 Bft)
31.03.2021 16:00 24,0 C 10,6 C 22,5 C 28,0 C 28,0 C 4,0 C 33 % 34 % 1025,2 hPa 0,0 l/m 3,9 km/h (1 Bft) SO 135 5 min 6,7 C 28,0 C 2,3 km/h (1 Bft)
31.03.2021 16:05 24,2 C 10,7 C 22,5 C 28,3 C 28,3 C 4,1 C 33 % 33 % 1025,2 hPa 0,0 l/m 3,4 km/h (1 Bft) NO 45 5 min 6,9 C 28,3 C 2,6 km/h (1 Bft)
31.03.2021 16:10 24,3 C 10,7 C 22,6 C 28,9 C 28,9 C 4,6 C 33 % 34 % 1025,2 hPa 0,0 l/m 2,3 km/h (1 Bft) W 270 5 min 7,0 C 28,9 C 0,0 km/h (0 Bft)
31.03.2021 16:15 24,5 C 10,7 C 22,7 C 29,5 C 29,5 C 5,0 C 33 % 33 % 1025,2 hPa 0,0 l/m 1,9 km/h (1 Bft) SO 135 5 min 7,2 C 29,5 C 2,6 km/h (1 Bft)
31.03.2021 16:20 24,5 C 10,7 C 22,7 C 29,7 C 29,7 C 5,2 C 32 % 34 % 1024,4 hPa 0,0 l/m 2,7 km/h (1 Bft) S 180 5 min 6,7 C 29,7 C 3,4 km/h (1 Bft)
31.03.2021 16:25 24,5 C 10,7 C 22,8 C 29,6 C 29,6 C 5,1 C 32 % 35 % 1024,4 hPa 0,0 l/m 3,4 km/h (1 Bft) W-SW 247 5 min 6,7 C 29,6 C 4,5 km/h (1 Bft)
31.03.2021 16:30 24,4 C 10,8 C 22,9 C 29,4 C 29,4 C 5,0 C 32 % 34 % 1024,4 hPa 0,0 l/m 3,9 km/h (1 Bft) SW 225 5 min 6,6 C 29,4 C 5,1 km/h (1 Bft)
31.03.2021 16:35 24,3 C 10,9 C 22,8 C 29,0 C 29,0 C 4,7 C 32 % 34 % 1024,4 hPa 0,0 l/m 4,2 km/h (1 Bft) SW 225 5 min 6,5 C 29,0 C 3,2 km/h (1 Bft)
31.03.2021 16:40 24,3 C 10,9 C 22,5 C 28,0 C 28,0 C 3,7 C 32 % 33 % 1024,6 hPa 0,0 l/m 4,2 km/h (1 Bft) S 180 5 min 6,5 C 28,0 C 2,9 km/h (1 Bft)
31.03.2021 16:45 24,3 C 10,9 C 22,4 C 27,6 C 27,6 C 3,3 C 32 % 34 % 1024,6 hPa 0,0 l/m 2,9 km/h (1 Bft) O-SO 112 5 min 6,5 C 27,6 C 3,2 km/h (1 Bft)
31.03.2021 16:50 24,1 C 10,9 C 22,3 C 27,2 C 27,2 C 3,1 C 32 % 34 % 1024,6 hPa 0,0 l/m 2,7 km/h (1 Bft) SW 225 0 min 6,4 C 27,2 C 4,0 km/h (1 Bft)
31.03.2021 16:55 24,1 C 11,0 C 22,3 C 26,9 C 26,9 C 2,8 C 32 % 34 % 1024,6 hPa 0,0 l/m 3,4 km/h (1 Bft) S 180 0 min 6,4 C 26,9 C 3,1 km/h (1 Bft)
31.03.2021 17:00 24,4 C 11,0 C 22,3 C 27,4 C 27,4 C 3,0 C 32 % 35 % 1023,9 hPa 0,0 l/m 3,2 km/h (1 Bft) SO 135 0 min 6,6 C 27,4 C 2,4 km/h (1 Bft)
31.03.2021 17:05 24,5 C 11,0 C 22,2 C 27,1 C 27,1 C 2,6 C 32 % 34 % 1023,9 hPa 0,0 l/m 2,9 km/h (1 Bft) S-SO 157 0 min 6,7 C 27,1 C 2,6 km/h (1 Bft)
31.03.2021 17:10 24,7 C 11,0 C 22,3 C 26,6 C 26,6 C 1,9 C 32 % 34 % 1023,9 hPa 0,0 l/m 2,7 km/h (1 Bft) SO 135 0 min 6,9 C 26,6 C 1,6 km/h (1 Bft)
31.03.2021 17:15 24,5 C 11,1 C 22,3 C 26,5 C 26,5 C 2,0 C 32 % 35 % 1023,9 hPa 0,0 l/m 2,6 km/h (1 Bft) W-NW 292 0 min 6,7 C 26,5 C 4,8 km/h (1 Bft)
31.03.2021 17:20 24,3 C 11,1 C 22,2 C 26,1 C 26,1 C 1,8 C 32 % 36 % 1023,8 hPa 0,0 l/m 2,7 km/h (1 Bft) SW 225 0 min 6,5 C 26,1 C 3,5 km/h (1 Bft)
31.03.2021 17:25 24,2 C 11,1 C 22,3 C 26,0 C 26,0 C 1,8 C 32 % 35 % 1023,8 hPa 0,0 l/m 2,7 km/h (1 Bft) SW 225 0 min 6,5 C 26,0 C 4,0 km/h (1 Bft)
31.03.2021 17:30 24,3 C 11,1 C 22,5 C 25,9 C 25,9 C 1,6 C 32 % 36 % 1023,8 hPa 0,0 l/m 1,9 km/h (1 Bft) SW 225 0 min 6,5 C 25,9 C 3,9 km/h (1 Bft)
31.03.2021 17:35 24,4 C 11,2 C 22,7 C 25,9 C 25,9 C 1,5 C 32 % 36 % 1023,8 hPa 0,0 l/m 1,8 km/h (1 Bft) SW 225 0 min 6,6 C 25,9 C 3,4 km/h (1 Bft)
31.03.2021 17:40 24,5 C 11,2 C 22,5 C 25,9 C 25,9 C 1,4 C 32 % 35 % 1023,5 hPa 0,0 l/m 1,9 km/h (1 Bft) SW 225 0 min 6,7 C 25,9 C 0,0 km/h (0 Bft)
31.03.2021 17:45 24,7 C 11,2 C 22,3 C 25,7 C 25,7 C 1,0 C 32 % 36 % 1023,5 hPa 0,0 l/m 1,1 km/h (1 Bft) SW 225 0 min 6,9 C 25,7 C 1,8 km/h (1 Bft)
31.03.2021 17:50 24,7 C 11,2 C 22,1 C 26,1 C 26,1 C 1,4 C 32 % 36 % 1023,5 hPa 0,0 l/m 0,6 km/h (0 Bft) SW 225 0 min 6,9 C 26,1 C 2,1 km/h (1 Bft)
31.03.2021 17:55 24,7 C 11,3 C 21,9 C 25,8 C 25,8 C 1,1 C 32 % 36 % 1023,5 hPa 0,0 l/m 1,0 km/h (0 Bft) S 180 0 min 6,9 C 25,8 C 0,0 km/h (0 Bft)
31.03.2021 18:00 24,6 C 11,3 C 21,7 C 25,6 C 25,6 C 1,0 C 32 % 38 % 1023,5 hPa 0,0 l/m 0,8 km/h (0 Bft) S 180 0 min 6,8 C 25,6 C 0,0 km/h (0 Bft)
31.03.2021 18:05 24,5 C 11,3 C 21,5 C 25,7 C 25,7 C 1,2 C 32 % 38 % 1023,5 hPa 0,0 l/m 0,3 km/h (0 Bft) W-NW 292 0 min 6,7 C 25,7 C 0,0 km/h (0 Bft)
31.03.2021 18:10 24,3 C 11,4 C 21,6 C 25,3 C 25,3 C 1,0 C 32 % 38 % 1023,5 hPa 0,0 l/m 0,6 km/h (0 Bft) W-SW 247 0 min 6,5 C 25,3 C 0,0 km/h (0 Bft)
31.03.2021 18:15 24,4 C 11,3 C 21,3 C 25,1 C 25,1 C 0,7 C 32 % 38 % 1023,5 hPa 0,0 l/m 0,6 km/h (0 Bft) W-SW 247 0 min 6,6 C 25,1 C 0,0 km/h (0 Bft)
31.03.2021 18:20 24,5 C 11,4 C 21,1 C 24,9 C 24,9 C 0,4 C 32 % 40 % 1023,0 hPa 0,0 l/m 0,3 km/h (0 Bft) W 270 0 min 6,7 C 24,9 C 1,6 km/h (1 Bft)
31.03.2021 18:25 24,4 C 11,4 C 21,0 C 24,9 C 24,9 C 0,5 C 32 % 39 % 1023,0 hPa 0,0 l/m 0,6 km/h (0 Bft) W 270 0 min 6,6 C 24,9 C 0,0 km/h (0 Bft)
31.03.2021 18:30 24,1 C 11,4 C 20,9 C 24,8 C 24,8 C 0,7 C 32 % 39 % 1023,0 hPa 0,0 l/m 0,5 km/h (0 Bft) S 180 0 min 6,4 C 24,8 C 0,0 km/h (0 Bft)
31.03.2021 18:35 24,1 C 11,4 C 20,5 C 24,6 C 24,6 C 0,5 C 32 % 41 % 1023,0 hPa 0,0 l/m 0,0 km/h (0 Bft) S 180 0 min 6,4 C 24,6 C 0,0 km/h (0 Bft)
31.03.2021 18:40 24,1 C 11,4 C 20,2 C 24,5 C 24,5 C 0,4 C 33 % 41 % 1023,3 hPa 0,0 l/m 0,0 km/h (0 Bft) S-SW 202 0 min 6,8 C 24,5 C 0,0 km/h (0 Bft)
31.03.2021 18:45 24,1 C 11,4 C 19,9 C 24,3 C 24,3 C 0,2 C 32 % 41 % 1023,3 hPa 0,0 l/m 0,0 km/h (0 Bft) S-SW 202 0 min 6,4 C 24,3 C 0,0 km/h (0 Bft)
31.03.2021 18:50 23,8 C 11,5 C 19,6 C 24,1 C 24,1 C 0,3 C 32 % 43 % 1023,3 hPa 0,0 l/m 0,0 km/h (0 Bft) S-SW 202 0 min 6,1 C 24,1 C 0,0 km/h (0 Bft)
31.03.2021 18:55 23,7 C 11,5 C 19,3 C 23,8 C 23,8 C 0,1 C 33 % 44 % 1023,3 hPa 0,0 l/m 0,0 km/h (0 Bft) S-SW 202 0 min 6,5 C 23,8 C 0,0 km/h (0 Bft)
31.03.2021 19:00 23,3 C 11,5 C 19,0 C 23,6 C 23,6 C 0,3 C 33 % 44 % 1022,9 hPa 0,0 l/m 0,0 km/h (0 Bft) S-SW 202 0 min 6,1 C 23,6 C 0,0 km/h (0 Bft)
31.03.2021 19:05 23,0 C 11,5 C 18,7 C 23,4 C 23,4 C 0,4 C 34 % 44 % 1022,9 hPa 0,0 l/m 0,0 km/h (0 Bft) S-SW 202 0 min 6,3 C 23,4 C 0,0 km/h (0 Bft)
31.03.2021 19:10 22,7 C 11,6 C 18,3 C 22,9 C 22,9 C 0,2 C 35 % 45 % 1022,9 hPa 0,0 l/m 0,0 km/h (0 Bft) S-SW 202 0 min 6,4 C 22,9 C 0,0 km/h (0 Bft)
31.03.2021 19:15 22,3 C 11,6 C 17,9 C 22,3 C 22,3 C 0,0 C 36 % 47 % 1022,9 hPa 0,0 l/m 0,0 km/h (0 Bft) S-SW 202 0 min 6,5 C 22,3 C 0,0 km/h (0 Bft)
31.03.2021 19:20 21,7 C 11,6 C 17,6 C 21,6 C 21,5 C 0,0 C 38 % 48 % 1022,4 hPa 0,0 l/m 0,0 km/h (0 Bft) S-SW 202 0 min 6,8 C 21,5 C 0,0 km/h (0 Bft)
31.03.2021 19:25 21,5 C 11,6 C 17,3 C 21,3 C 20,9 C 0,0 C 39 % 50 % 1022,4 hPa 0,0 l/m 0,0 km/h (0 Bft) S-SW 202 0 min 7,0 C 20,9 C 0,0 km/h (0 Bft)
31.03.2021 19:30 21,1 C 11,7 C 17,0 C 20,8 C 20,2 C 0,0 C 41 % 50 % 1022,4 hPa 0,0 l/m 0,0 km/h (0 Bft) S-SW 202 0 min 7,3 C 20,2 C 0,0 km/h (0 Bft)
31.03.2021 19:35 20,6 C 11,7 C 16,6 C 20,2 C 19,4 C 0,0 C 41 % 50 % 1022,4 hPa 0,0 l/m 0,0 km/h (0 Bft) S-SW 202 0 min 6,9 C 19,4 C 0,0 km/h (0 Bft)
31.03.2021 19:40 20,1 C 11,7 C 16,2 C 19,5 C 18,4 C 0,0 C 41 % 52 % 1022,5 hPa 0,0 l/m 0,0 km/h (0 Bft) S-SW 202 0 min 6,4 C 18,4 C 0,0 km/h (0 Bft)
31.03.2021 19:45 19,7 C 11,6 C 15,9 C 19,1 C 17,9 C 0,0 C 43 % 53 % 1022,5 hPa 0,0 l/m 0,0 km/h (0 Bft) S-SW 202 0 min 6,8 C 17,9 C 0,0 km/h (0 Bft)
31.03.2021 19:50 19,1 C 11,6 C 15,5 C 18,5 C 17,2 C 0,0 C 44 % 53 % 1022,5 hPa 0,0 l/m 0,0 km/h (0 Bft) S-SW 202 0 min 6,6 C 17,2 C 0,0 km/h (0 Bft)
31.03.2021 19:55 18,8 C 11,6 C 15,1 C 18,1 C 16,7 C 0,0 C 44 % 55 % 1022,5 hPa 0,0 l/m 0,0 km/h (0 Bft) S-SW 202 0 min 6,3 C 16,7 C 0,0 km/h (0 Bft)
31.03.2021 20:00 18,2 C 11,7 C 14,7 C 17,4 C 15,8 C 0,0 C 46 % 56 % 1022,5 hPa 0,0 l/m 0,0 km/h (0 Bft) S-SW 202 0 min 6,4 C 15,8 C 0,0 km/h (0 Bft)
31.03.2021 20:05 17,9 C 11,7 C 14,6 C 17,1 C 15,4 C 0,0 C 47 % 57 % 1022,5 hPa 0,0 l/m 0,0 km/h (0 Bft) S-SW 202 0 min 6,4 C 15,4 C 0,0 km/h (0 Bft)
31.03.2021 20:10 17,3 C 11,7 C 14,1 C 16,6 C 15,1 C 0,0 C 49 % 59 % 1022,5 hPa 0,0 l/m 0,0 km/h (0 Bft) S-SW 202 0 min 6,5 C 15,1 C 0,0 km/h (0 Bft)
31.03.2021 20:15 17,0 C 11,7 C 13,9 C 16,2 C 14,6 C 0,0 C 50 % 60 % 1022,5 hPa 0,0 l/m 0,0 km/h (0 Bft) S-SW 202 0 min 6,5 C 14,6 C 0,0 km/h (0 Bft)
31.03.2021 20:20 16,4 C 11,7 C 13,5 C 15,6 C 14,0 C 0,0 C 50 % 61 % 1022,6 hPa 0,0 l/m 0,0 km/h (0 Bft) S-SW 202 0 min 6,0 C 14,0 C 0,0 km/h (0 Bft)
31.03.2021 20:25 16,1 C 11,7 C 13,2 C 15,3 C 13,6 C 0,0 C 51 % 62 % 1022,6 hPa 0,0 l/m 0,0 km/h (0 Bft) S-SW 202 0 min 6,0 C 13,6 C 0,0 km/h (0 Bft)
31.03.2021 20:30 15,6 C 11,7 C 12,9 C 14,7 C 13,0 C 0,0 C 52 % 62 % 1022,6 hPa 0,0 l/m 0,0 km/h (0 Bft) S-SW 202 0 min 5,8 C 13,0 C 0,0 km/h (0 Bft)
31.03.2021 20:35 15,5 C 11,7 C 12,7 C 14,6 C 12,7 C 0,0 C 53 % 63 % 1022,6 hPa 0,0 l/m 0,0 km/h (0 Bft) S-SW 202 0 min 6,0 C 12,7 C 0,0 km/h (0 Bft)
31.03.2021 20:40 14,9 C 11,7 C 12,4 C 14,1 C 12,4 C 0,0 C 55 % 64 % 1022,7 hPa 0,0 l/m 0,0 km/h (0 Bft) S-SW 202 0 min 5,9 C 12,4 C 0,0 km/h (0 Bft)
31.03.2021 20:45 14,7 C 11,7 C 12,2 C 13,9 C 12,2 C 0,0 C 56 % 64 % 1022,7 hPa 0,0 l/m 0,0 km/h (0 Bft) S-SW 202 0 min 6,0 C 12,2 C 0,0 km/h (0 Bft)
31.03.2021 20:50 14,3 C 11,7 C 12,0 C 13,5 C 11,9 C 0,0 C 57 % 66 % 1022,7 hPa 0,0 l/m 0,0 km/h (0 Bft) S-SW 202 0 min 5,9 C 11,9 C 0,0 km/h (0 Bft)
31.03.2021 20:55 14,0 C 11,8 C 11,8 C 13,2 C 11,6 C 0,0 C 57 % 67 % 1022,7 hPa 0,0 l/m 0,0 km/h (0 Bft) S-SW 202 0 min 5,6 C 11,6 C 0,0 km/h (0 Bft)
31.03.2021 21:00 13,6 C 11,8 C 11,5 C 12,8 C 11,3 C 0,0 C 58 % 68 % 1022,8 hPa 0,0 l/m 0,0 km/h (0 Bft) S-SW 202 0 min 5,5 C 11,3 C 0,0 km/h (0 Bft)
31.03.2021 21:05 13,5 C 11,8 C 11,3 C 12,7 C 11,2 C 0,0 C 59 % 68 % 1022,8 hPa 0,0 l/m 0,0 km/h (0 Bft) S-SW 202 0 min 5,6 C 11,2 C 0,0 km/h (0 Bft)
31.03.2021 21:10 13,1 C 11,8 C 11,1 C 12,4 C 10,9 C 0,0 C 60 % 69 % 1022,8 hPa 0,0 l/m 0,0 km/h (0 Bft) S-SW 202 0 min 5,5 C 10,9 C 0,0 km/h (0 Bft)
31.03.2021 21:15 12,8 C 11,8 C 11,0 C 12,1 C 10,7 C 0,0 C 61 % 70 % 1022,8 hPa 0,0 l/m 0,0 km/h (0 Bft) S-SW 202 0 min 5,5 C 10,7 C 0,0 km/h (0 Bft)
31.03.2021 21:20 12,6 C 11,8 C 11,0 C 11,9 C 10,6 C 0,0 C 63 % 71 % 1022,5 hPa 0,0 l/m 0,0 km/h (0 Bft) S-SW 202 0 min 5,7 C 10,6 C 0,0 km/h (0 Bft)
31.03.2021 21:25 12,4 C 11,8 C 10,9 C 11,8 C 10,5 C 0,0 C 64 % 71 % 1022,5 hPa 0,0 l/m 0,0 km/h (0 Bft) S-SW 202 0 min 5,8 C 10,5 C 0,0 km/h (0 Bft)
31.03.2021 21:30 12,3 C 11,8 C 10,6 C 11,7 C 10,4 C 0,0 C 65 % 72 % 1022,5 hPa 0,0 l/m 0,0 km/h (0 Bft) S-SW 202 0 min 5,9 C 10,4 C 0,0 km/h (0 Bft)
31.03.2021 21:35 12,0 C 11,8 C 10,5 C 11,4 C 10,3 C 0,0 C 65 % 72 % 1022,5 hPa 0,0 l/m 0,0 km/h (0 Bft) S-SW 202 0 min 5,6 C 10,3 C 0,0 km/h (0 Bft)
31.03.2021 21:40 11,9 C 11,8 C 10,3 C 11,3 C 10,1 C 0,0 C 66 % 73 % 1022,2 hPa 0,0 l/m 0,0 km/h (0 Bft) S-SW 202 0 min 5,8 C 10,1 C 0,0 km/h (0 Bft)
31.03.2021 21:45 11,6 C 11,8 C 10,1 C 11,1 C 10,0 C 0,0 C 66 % 73 % 1022,2 hPa 0,0 l/m 0,0 km/h (0 Bft) S-SW 202 0 min 5,5 C 10,0 C 0,0 km/h (0 Bft)
31.03.2021 21:50 11,5 C 11,8 C 10,0 C 10,9 C 9,6 C 0,0 C 67 % 74 % 1022,2 hPa 0,0 l/m 0,0 km/h (0 Bft) S-SW 202 0 min 5,6 C 9,6 C 0,0 km/h (0 Bft)
31.03.2021 21:55 11,3 C 11,8 C 9,9 C 10,7 C 9,5 C 0,0 C 68 % 75 % 1022,2 hPa 0,0 l/m 0,0 km/h (0 Bft) S-SW 202 0 min 5,6 C 9,5 C 0,0 km/h (0 Bft)
31.03.2021 22:00 11,1 C 11,8 C 9,7 C 10,5 C 9,3 C 0,0 C 69 % 75 % 1022,8 hPa 0,0 l/m 0,0 km/h (0 Bft) S-SW 202 0 min 5,6 C 9,3 C 0,0 km/h (0 Bft)
31.03.2021 22:05 11,1 C 11,8 C 9,6 C 10,4 C 9,1 C 0,0 C 69 % 75 % 1022,8 hPa 0,0 l/m 0,0 km/h (0 Bft) S-SW 202 0 min 5,6 C 9,1 C 0,0 km/h (0 Bft)
31.03.2021 22:10 10,7 C 11,8 C 9,4 C 10,1 C 8,9 C 0,0 C 69 % 76 % 1022,8 hPa 0,0 l/m 0,0 km/h (0 Bft) S-SW 202 0 min 5,2 C 8,9 C 0,0 km/h (0 Bft)
31.03.2021 22:15 10,5 C 11,8 C 9,3 C 9,9 C 8,7 C 0,0 C 70 % 76 % 1022,8 hPa 0,0 l/m 0,0 km/h (0 Bft) S-SW 202 0 min 5,3 C 8,7 C 0,0 km/h (0 Bft)
31.03.2021 22:20 10,3 C 11,8 C 9,2 C 9,7 C 8,6 C 0,0 C 70 % 76 % 1022,4 hPa 0,0 l/m 0,0 km/h (0 Bft) S-SW 202 0 min 5,1 C 8,6 C 0,0 km/h (0 Bft)
31.03.2021 22:25 10,3 C 11,8 C 9,1 C 9,7 C 8,5 C 0,0 C 71 % 77 % 1022,4 hPa 0,0 l/m 0,0 km/h (0 Bft) S-SW 202 0 min 5,3 C 8,5 C 0,0 km/h (0 Bft)
31.03.2021 22:30 10,1 C 11,8 C 8,8 C 9,5 C 8,4 C 0,0 C 72 % 77 % 1022,4 hPa 0,0 l/m 0,0 km/h (0 Bft) S-SW 202 0 min 5,3 C 8,4 C 0,0 km/h (0 Bft)
31.03.2021 22:35 10,0 C 11,8 C 8,8 C 9,4 C 8,2 C 0,0 C 72 % 78 % 1022,4 hPa 0,0 l/m 0,0 km/h (0 Bft) S-SW 202 0 min 5,2 C 8,2 C 0,0 km/h (0 Bft)
31.03.2021 22:40 9,7 C 11,8 C 8,7 C 9,1 C 8,0 C 0,0 C 72 % 78 % 1022,4 hPa 0,0 l/m 0,0 km/h (0 Bft) S-SW 202 0 min 4,9 C 8,0 C 0,0 km/h (0 Bft)
31.03.2021 22:45 9,6 C 11,8 C 8,7 C 9,0 C 7,9 C 0,0 C 72 % 79 % 1022,4 hPa 0,0 l/m 0,0 km/h (0 Bft) S-SW 202 0 min 4,8 C 7,9 C 0,0 km/h (0 Bft)
31.03.2021 22:50 9,5 C 11,9 C 8,5 C 8,9 C 7,7 C 0,0 C 74 % 79 % 1022,4 hPa 0,0 l/m 0,0 km/h (0 Bft) S-SW 202 0 min 5,1 C 7,7 C 0,0 km/h (0 Bft)
31.03.2021 22:55 9,3 C 11,9 C 8,5 C 8,7 C 7,5 C 0,0 C 73 % 79 % 1022,4 hPa 0,0 l/m 0,0 km/h (0 Bft) S-SW 202 0 min 4,7 C 7,5 C 0,0 km/h (0 Bft)
31.03.2021 23:00 9,2 C 11,9 C 8,3 C 8,6 C 7,4 C 0,0 C 73 % 79 % 1022,7 hPa 0,0 l/m 0,0 km/h (0 Bft) S-SW 202 0 min 4,6 C 7,4 C 0,0 km/h (0 Bft)
31.03.2021 23:05 9,1 C 11,8 C 8,2 C 8,5 C 7,3 C 0,0 C 73 % 79 % 1022,7 hPa 0,0 l/m 0,0 km/h (0 Bft) S-SW 202 0 min 4,5 C 7,3 C 0,0 km/h (0 Bft)
31.03.2021 23:10 8,9 C 11,8 C 8,2 C 8,4 C 7,3 C 0,0 C 75 % 80 % 1022,7 hPa 0,0 l/m 0,0 km/h (0 Bft) S-SW 202 0 min 4,7 C 7,3 C 0,0 km/h (0 Bft)
31.03.2021 23:15 8,8 C 11,8 C 8,1 C 8,3 C 7,3 C 0,0 C 75 % 80 % 1022,7 hPa 0,0 l/m 0,0 km/h (0 Bft) S-SW 202 0 min 4,6 C 7,3 C 0,0 km/h (0 Bft)
31.03.2021 23:20 8,7 C 11,8 C 7,9 C 8,2 C 7,1 C 0,0 C 75 % 80 % 1022,8 hPa 0,0 l/m 0,0 km/h (0 Bft) S-SW 202 0 min 4,5 C 7,1 C 0,0 km/h (0 Bft)
31.03.2021 23:25 8,7 C 11,8 C 7,8 C 8,1 C 7,0 C 0,0 C 75 % 80 % 1022,8 hPa 0,0 l/m 0,0 km/h (0 Bft) S-SW 202 0 min 4,5 C 7,0 C 0,0 km/h (0 Bft)
31.03.2021 23:30 8,4 C 11,8 C 7,7 C 7,9 C 6,8 C 0,0 C 75 % 81 % 1022,8 hPa 0,0 l/m 0,0 km/h (0 Bft) S-SW 202 0 min 4,2 C 6,8 C 0,0 km/h (0 Bft)
31.03.2021 23:35 8,3 C 11,8 C 7,6 C 7,7 C 6,6 C 0,0 C 75 % 81 % 1022,8 hPa 0,0 l/m 0,0 km/h (0 Bft) S-SW 202 0 min 4,1 C 6,6 C 0,0 km/h (0 Bft)
31.03.2021 23:40 8,1 C 11,8 C 7,6 C 7,6 C 6,5 C 0,0 C 76 % 81 % 1022,7 hPa 0,0 l/m 0,0 km/h (0 Bft) S-SW 202 0 min 4,1 C 6,5 C 0,0 km/h (0 Bft)
31.03.2021 23:45 8,0 C 11,8 C 7,5 C 7,5 C 6,5 C 0,0 C 76 % 81 % 1022,7 hPa 0,0 l/m 0,0 km/h (0 Bft) S-SW 202 0 min 4,0 C 6,5 C 0,0 km/h (0 Bft)
31.03.2021 23:50 7,9 C 11,8 C 7,4 C 7,4 C 6,4 C 0,0 C 76 % 82 % 1022,7 hPa 0,0 l/m 0,0 km/h (0 Bft) S-SW 202 0 min 3,9 C 6,4 C 0,0 km/h (0 Bft)
31.03.2021 23:55 7,9 C 11,8 C 7,4 C 7,4 C 6,3 C 0,0 C 77 % 82 % 1022,7 hPa 0,0 l/m 0,0 km/h (0 Bft) S-SW 202 0 min 4,1 C 6,3 C 0,0 km/h (0 Bft)
_ Min-Zeit 06:50 10:30 07:00 06:55 05:50 00:00 15:30 13:50 21:40 - 00:00 - - - 06:50 05:50 00:00
Minimum _ 1,1 C 9,1 C 1,3 C 0,7 C 0,0 C 0,0 C 32 % 28 % 1022,2 hPa - 0,0 km/h (0 Bft) - - - -1,1 C 0,0 C 0,0 km/h (0 Bft)
_ Max-Zeit 17:10 22:50 13:00 15:25 15:25 08:50 08:05 07:35 00:00 00:00 14:45 - - 07:30 11:40 15:25 15:50
Maximum _ 24,7 C 11,9 C 27,8 C 29,7 C 29,7 C 13,3 C 88 % 90 % 1031,9 hPa 0,0 l/m 6,8 km/h
S (2 Bft)
- - 5 min 9,1 C 29,7 C 10,9 km/h
NO (2 Bft)
Durchschnitt _ 12,2 C 10,5 C 12,2 C 14,3 C 13,7 C 2,4 C 63 % 65 % 1027,0 hPa #0,0 l/m 1,1 km/h (0 Bft) SW - #8:40 h 4,1 C 13,7 C 1,4 km/h (1 Bft)
2021 www.wetterstation-wechselburg.de